Livingston, MT

10:38 AM MST on November 23, 2017 (GMT -0700)
Mission

Weather History for KLVM - November, 2012

Change the Weather History Date:

Tuesday, November 6, 2012

  Actual Average Record
Temperature  
Mean Temperature 60 °F 38 °F  
Max Temperature 68 °F 49 °F 75 °F (1999)
Min Temperature 51 °F 27 °F -6 °F (2017)
Degree Days  
Heating Degree Days 6 27  
Month to date heating degree days 157  
Since 1 July heating degree days 1185  
Cooling Degree Days 0 0  
Month to date cooling degree days 0  
Year to date cooling degree days 230  
Growing Degree Days 10 (Base 50)    
Moisture  
Dew Point 31 °F    
Average Humidity 35    
Maximum Humidity 48    
Minimum Humidity 23    
Precipitation  
Precipitation 0.00 in 0.02 in 0.37 in (1966)
Month to date precipitation 0.12  
Year to date precipitation 13.82  
Sea Level Pressure  
Sea Level Pressure 30.04 in    
Wind  
Wind Speed 21 mph (SW)    
Max Wind Speed 32 mph    
Max Gust Speed 45 mph    
Visibility 10 miles    
Events      
T = Trace of Precipitation, MM = Missing Value Source: NWS Daily Summary

Daily Weather History Graph

Daily Weather History Graph

Search for Another Location

Airport or City:

Trip Planner

Search our weather history database for the weather conditions in past years. The results will help you decide how hot, cold, wet, or windy it might be!

Date:

Astronomy

Nov. 06, 2012 Rise Set
Actual Time 7:09 AM MST 5:00 PM MST
Civil Twilight 6:38 AM MST 5:32 PM MST
Nautical Twilight 6:02 AM MST 6:07 PM MST
Astronomical Twilight 5:27 AM MST 6:42 PM MST
Moon 11:47 PM MST (11/6) 1:00 PM MST (11/6)
Length of Visible Light 10h 54m
Length of Day
9h 51m
Waning Gibbous, 52% of the Moon is Illuminated
Nov 6
Waning Gibbous
Nov 6
Last Quarter
Nov 13
New
Nov 20
First Quarter
Nov 28
Full

Hourly Weather History & Observations

Time (MST) Temp. Dew Point Humidity Pressure Visibility Wind Dir Wind Speed Gust Speed Precip Events Conditions
12:53 AM 57.0 °F 30.0 °F 36% 30.12 in 10.0 mi SW 19.6 mph - N/A   Scattered Clouds
1:53 AM 54.0 °F 30.0 °F 40% 30.13 in 10.0 mi West 10.4 mph - N/A   Mostly Cloudy
2:53 AM 54.0 °F 30.0 °F 40% 30.13 in 10.0 mi SW 16.1 mph - N/A   Clear
3:53 AM 52.0 °F 30.9 °F 45% 30.14 in 10.0 mi SW 19.6 mph - N/A   Scattered Clouds
4:53 AM 52.0 °F 32.0 °F 47% 30.14 in 10.0 mi SW 25.3 mph 31.1 mph N/A   Clear
5:53 AM 52.0 °F 32.0 °F 47% 30.14 in 10.0 mi SW 24.2 mph 29.9 mph N/A   Clear
6:53 AM 52.0 °F 32.0 °F 47% 30.14 in 10.0 mi SW 24.2 mph 32.2 mph N/A   Clear
7:53 AM 51.1 °F 32.0 °F 48% 30.14 in 10.0 mi WSW 23.0 mph 28.8 mph N/A   Clear
8:53 AM 55.0 °F 32.0 °F 42% 30.13 in 10.0 mi SW 32.2 mph 44.9 mph N/A   Clear
9:53 AM 57.9 °F 32.0 °F 37% 30.13 in 10.0 mi SW 18.4 mph 29.9 mph N/A   Clear
10:53 AM 62.1 °F 32.0 °F 32% 30.11 in 10.0 mi WSW 21.9 mph 28.8 mph N/A   Clear
11:53 AM 64.9 °F 30.0 °F 27% 30.07 in 10.0 mi SW 20.7 mph 33.4 mph N/A   Clear
12:53 PM 66.0 °F 28.9 °F 25% 30.03 in 10.0 mi WSW 18.4 mph 38.0 mph N/A   Clear
1:53 PM 68.0 °F 28.9 °F 23% 30.02 in 10.0 mi SW 19.6 mph 29.9 mph N/A   Clear
2:53 PM 68.0 °F 28.9 °F 23% 30.00 in 10.0 mi SW 18.4 mph 26.5 mph N/A   Clear
3:53 PM 66.0 °F 28.9 °F 25% 30.00 in 10.0 mi SSW 27.6 mph 36.8 mph N/A   Clear
4:53 PM 63.0 °F 30.0 °F 29% 30.01 in 10.0 mi SW 12.7 mph 25.3 mph N/A   Clear
5:53 PM 60.1 °F 32.0 °F 35% 29.99 in 10.0 mi SW 21.9 mph 32.2 mph N/A   Clear
6:53 PM 61.0 °F 32.0 °F 34% 29.96 in 10.0 mi SSW 31.1 mph 41.4 mph N/A   Clear
7:53 PM 60.1 °F 32.0 °F 35% 29.96 in 10.0 mi SSW 26.5 mph 40.3 mph N/A   Clear
8:53 PM 59.0 °F 30.9 °F 35% 29.94 in 10.0 mi SSW 32.2 mph 42.6 mph N/A   Squalls
9:53 PM 60.1 °F 28.9 °F 31% 29.91 in 10.0 mi SSW 24.2 mph 40.3 mph N/A   Clear
10:53 PM 57.9 °F 30.0 °F 35% 29.88 in 10.0 mi SSW 26.5 mph 34.5 mph N/A   Clear
11:53 PM 57.9 °F 28.9 °F 33% 29.86 in 10.0 mi WSW 18.4 mph 32.2 mph N/A   Clear